TimeCST,TemperatureF,Dew PointF,Humidity,Sea Level PressureIn,VisibilityMPH,Wind Direction,Wind SpeedMPH,Gust SpeedMPH,PrecipitationIn,Events,Conditions,WindDirDegrees,DateUTC
1:56 AM,45.0,39.9,82,30.20,8.0,North,4.6,-,N/A,,Overcast,360,2012-11-08 07:56:00
2:56 AM,43.0,39.9,89,30.21,7.0,NNE,4.6,-,N/A,,Partly Cloudy,20,2012-11-08 08:56:00
3:56 AM,41.9,38.8,89,30.22,6.0,NNE,5.8,-,N/A,,Clear,30,2012-11-08 09:56:00
4:56 AM,37.9,36.0,93,30.23,4.0,Calm,Calm,-,N/A,,Clear,0,2012-11-08 10:56:00
5:22 AM,35.6,35.6,100,30.23,2.5,West,3.5,-,N/A,,Clear,280,2012-11-08 11:22:00
5:33 AM,37.4,35.6,93,30.23,3.0,Calm,Calm,-,N/A,,Mostly Cloudy,0,2012-11-08 11:33:00
5:56 AM,37.9,36.9,96,30.23,2.0,Calm,Calm,-,N/A,,Scattered Clouds,0,2012-11-08 11:56:00
6:56 AM,36.9,36.0,97,30.25,1.8,Calm,Calm,-,N/A,,Clear,0,2012-11-08 12:56:00
7:56 AM,43.0,39.9,89,30.27,1.8,Calm,Calm,-,N/A,,Clear,0,2012-11-08 13:56:00
8:26 AM,44.6,41.0,87,30.27,2.5,Calm,Calm,-,N/A,,Clear,0,2012-11-08 14:26:00
8:56 AM,46.9,43.0,86,30.28,3.0,Calm,Calm,-,N/A,,Clear,0,2012-11-08 14:56:00
9:56 AM,50.0,39.9,68,30.29,5.0,Calm,Calm,-,N/A,,Haze,0,2012-11-08 15:56:00
10:06 AM,48.2,39.2,71,30.28,5.0,Calm,Calm,-,N/A,,Haze,0,2012-11-08 16:06:00
10:56 AM,52.9,38.8,59,30.27,6.0,Calm,Calm,-,N/A,,Haze,0,2012-11-08 16:56:00
11:56 AM,52.0,37.9,59,30.25,8.0,Variable,3.5,-,N/A,,Haze,0,2012-11-08 17:56:00
12:56 PM,52.0,37.9,59,30.22,6.0,Calm,Calm,-,N/A,,Haze,0,2012-11-08 18:56:00
1:56 PM,52.9,38.8,59,30.21,8.0,SSE,6.9,-,N/A,,Clear,160,2012-11-08 19:56:00
2:56 PM,54.0,38.8,57,30.20,7.0,Calm,Calm,-,N/A,,Clear,0,2012-11-08 20:56:00
3:56 PM,52.9,39.9,61,30.19,6.0,SSE,3.5,-,N/A,,Haze,160,2012-11-08 21:56:00
4:56 PM,48.9,38.8,68,30.19,6.0,SSE,4.6,-,N/A,,Haze,160,2012-11-08 22:56:00
5:56 PM,46.9,38.8,73,30.19,8.0,SE,3.5,-,N/A,,Clear,130,2012-11-08 23:56:00
6:56 PM,45.9,38.8,76,30.19,8.0,Calm,Calm,-,N/A,,Clear,0,2012-11-09 00:56:00
7:56 PM,41.9,36.9,82,30.19,8.0,Calm,Calm,-,N/A,,Clear,0,2012-11-09 01:56:00
8:56 PM,41.0,36.9,85,30.20,8.0,Calm,Calm,-,N/A,,Clear,0,2012-11-09 02:56:00
9:56 PM,39.9,36.9,89,30.19,7.0,Calm,Calm,-,N/A,,Clear,0,2012-11-09 03:56:00
10:56 PM,38.8,36.9,93,30.18,7.0,SE,3.5,-,N/A,,Clear,130,2012-11-09 04:56:00
11:56 PM,36.9,34.9,93,30.19,6.0,Calm,Calm,-,N/A,,Clear,0,2012-11-09 05:56:00